Weather observations for the past three days for
Greeley, Greeley-Weld County Airport
Imperial (Metric)
Date Time (mdt) Wind (mph) Vis. (mi.) Weather Sky Cond. Temperature (ºF) Relative Humidity Wind Chill (°F) Heat Index (°F) Pressure Precipitation (in)
Air Dwpt 6 hour altimeter (in) sea level (mb) 1 hr 3 hr 6 hr
Max. Min.
17 21:56 SW 6 10.00 Fair CLR 66.9 53.1 61% 30.35 1023.7
17 20:56 S 14 10.00 Fair CLR 69.1 52 55% 30.3 1022.1
17 19:56 E 12 10.00 Fair CLR 71.1 55 57% 30.31 1022.4
17 18:56 NE 25 G 29 10.00 Partly Cloudy and Breezy SCT090 75.9 53.1 45% 78 30.3 1022.3
17 17:56 E 14 G 21 10.00 Fair CLR 79 50 93 79 36% 79 30.24 1020.1
17 16:56 E 24 6.00 Mostly Cloudy with Haze and Breezy BKN095 82 51.1 34% 81 0 0.0
17 15:56 Vrbl 7 10.00 Fair CLR 91 48.9 24% 88 30.2 1018.1
17 14:56 Calm 10.00 Fair CLR 91.9 48 22% 89 30.22 1018.5
17 13:56 Vrbl 3 10.00 Fair CLR 88 50 27% 85 30.24 1019.7
17 12:56 Vrbl 5 10.00 Fair CLR 87.1 50 28% 84 30.26 1020.2
17 11:56 S 8 10.00 Fair CLR 84.9 50 86 62.1 30% 83 30.28 1020.9
17 10:56 S 7 10.00 Fair CLR 84 51.1 32% 82 30.3 1021.3
17 09:56 SW 8 10.00 Fair CLR 78.1 52 40% 79 30.3 1021.9
17 08:56 S 5 10.00 Fair CLR 75.9 52 43% 78 30.3 1021.3
17 07:56 SE 8 10.00 Fair CLR 72 53.1 52% 30.29 1021.1
17 06:56 NE 7 10.00 Fair CLR 64 55 73% 30.28 1020.9
17 05:56 N 8 10.00 Mostly Cloudy BKN120 62.1 55 66 59 78% 30.27 1020.8
17 04:56 N 7 10.00 Fair CLR 60.1 55 84% 30.25 1020.3
17 03:56 NW 6 10.00 Mostly Cloudy BKN110 59 54 83% 30.23 1019.8
17 02:56 Calm 10.00 Fair CLR 61 53.1 75% 30.21 1019.2
17 01:56 E 5 10.00 Fair CLR 61 54 78% 30.2 1018.2
17 00:56 Calm 7.00 Mostly Cloudy BKN100 64.9 55 70% 30.18 1017.3
16 23:56 E 5 10.00 A Few Clouds FEW110 64.9 55 87.1 64.9 70% 30.17 1017.1
16 22:56 E 8 10.00 Fair CLR 66.9 55 66% 30.17 1017.4
16 21:56 NE 6 10.00 Fair CLR 69.1 54 59% 30.16 1016.8
16 20:56 SW 8 10.00 Fair CLR 77 51.1 40% 78 30.14 1016.4
16 19:56 SE 6 10.00 Fair CLR 80.1 55.9 44% 80 30.13 1016.0
16 18:56 W 5 10.00 Fair CLR 87.1 46.9 25% 84 30.12 1015.5
16 17:56 NW 6 10.00 Fair CLR 84.9 50 91 73.9 30% 83 30.13 1016.2
16 16:56 W 8 10.00 Fair CLR 86 50 29% 84 30.14 1016.5
16 15:56 NW 9 10.00 A Few Clouds FEW039 82 53.1 37% 81 30.14 1016.7
16 14:56 W 23 G 26 10.00 Thunderstorm and Breezy FEW075 BKN100 81 51.1 35% 80 0 0.0
16 13:56 Vrbl 3 10.00 Fair CLR 89.1 48 24% 86 30.12 1015.5
16 12:56 NW 12 G 20 10.00 Fair CLR 89.1 51.1 27% 86 30.14 1015.8
16 11:56 W 7 10.00 Fair CLR 86 52 86 57 31% 84 30.15 1016.3
16 10:56 W 3 10.00 Fair CLR 81 55 41% 81 30.16 1017.1
16 09:56 Calm 10.00 Fair CLR 81 55 41% 81 30.17 1017.2
16 08:56 W 5 10.00 Fair CLR 71.1 57.9 63% 30.17 1017.8
16 07:56 Calm 10.00 Fair CLR 66.9 55.9 68% 30.16 1017.9
16 06:56 Calm 10.00 Fair CLR 61 55.9 84% 30.15 1016.9
16 05:56 NW 3 10.00 Mostly Cloudy BKN110 57 55 63 57 93% 30.14 1016.3
16 04:56 Calm 10.00 Fair CLR 57.9 55 90% 30.12 1015.7
16 03:56 NW 5 10.00 Fair CLR 59 55 87% 30.12 1016.0
16 02:56 N 6 10.00 Fair CLR 59 55 87% 30.12 1015.8
16 01:56 Calm 10.00 Fair CLR 60.1 55.9 86% 30.14 1015.4
16 00:56 SW 6 10.00 Fair CLR 61 55.9 84% 30.14 1015.8
15 23:56 Calm 10.00 Fair CLR 63 55 89.1 63 76% 30.14 1015.6
15 22:56 SE 6 10.00 Fair CLR 64 55.9 75% 30.16 1016.3
15 21:56 N 7 10.00 A Few Clouds FEW120 66.9 55.9 68% 30.17 1016.9
15 20:56 N 16 10.00 Fair CLR 69.1 55 61% 30.15 1017.0
15 19:56 NW 26 G 35 9.00 Light Rain and Windy FEW070 OVC100 69.1 57.9 68% 30.14 1016.9
15 18:56 S 7 10.00 Partly Cloudy SCT120 82 53.1 37% 81 30.07 1013.6
15 17:56 SW 16 10.00 A Few Clouds FEW120 88 51.1 98.1 84 28% 85 30.07 1013.7
15 16:56 SE 8 10.00 A Few Clouds FEW120 90 50 25% 87 30.09 1014.1
15 15:56 NE 12 10.00 Fair CLR 84.9 59 42% 85 30.08 1013.8
15 14:56 SW 16 G 21 10.00 Mostly Cloudy BKN120 87.1 50 28% 84 30.08 1013.7
15 13:56 N 14 G 21 10.00 Fair CLR 97 45 17% 93 30.06 1012.0
15 12:56 N 18 10.00 Fair CLR 93.9 44.1 18% 90 30.08 1012.8
15 11:56 NW 15 10.00 Fair CLR 95 48 96.1 61 20% 91 30.1 1013.1
15 10:56 NW 9 10.00 Fair CLR 91 55.9 31% 89 30.12 1014.0
15 09:56 NE 6 10.00 Fair CLR 84.9 55 36% 84 30.13 1014.7
15 08:56 NW 5 10.00 Fair CLR 73 57.9 59% 30.14 1016.0
15 07:56 S 3 10.00 Fair CLR 71.1 57 61% 30.12 1015.2
15 06:56 Calm 9.00 Fair CLR 66.9 55.9 68% 30.1 1014.3
15 05:56 S 6 10.00 Fair CLR 61 55 75 60.1 81% 30.1 1014.8
15 04:56 N 6 10.00 Fair CLR 62.1 55.9 80% 30.11 1014.7
15 03:56 NW 8 10.00 Fair CLR 64 57 78% 30.1 1014.1
15 02:56 SW 8 10.00 Fair CLR 69.1 55 61% 30.09 1013.2
15 01:56 SE 7 10.00 Fair CLR 71.1 55 57% 30.11 1013.7
15 00:56 SE 8 10.00 Mostly Cloudy BKN120 73 55 53% 30.15 1014.8
14 23:56 SE 10 10.00 Mostly Cloudy BKN110 75 57 88 72 54% 78 30.15 1015.0 0.01 0.03
14 22:56 Vrbl 3 10.00 Light Rain FEW037 SCT070 SCT110 75 57 54% 78 30.17 1015.5 0.02
Date Time (mdt) Wind (mph) Vis. (mi.) Weather Sky Cond. Air Dwpt Max. Min. Relative Humidity Wind Chill (°F) Heat Index (°F) altimeter (in) sea level (mb) 1 hr 3 hr 6 hr
6 hour
Temperature (ºF) Pressure Precipitation (in)